TDRS 7

Last updated on May 20, 2019, 3:09 a.m. UTC

1 23613U 95035B   19139.10654545 -.00000214  00000-0  00000+0 0  9997
2 23613  14.2455   8.0790 0033460  21.9512 329.4532  1.00270838 87213
UTC
Height (km)
Latitude
Longitude
Inclination
Orbital Period
UTC large
Height (km)
Speed (km/s)
/
Latitude / Longitude
Inclination (degrees)
Orbital Period (minutes)
Azimuth
Elevation
Range (km)
Doppler Factor
iOS Compass Heading
iOS Angle

Next 30 passes for location: Hong Kong

Rise time Rise Azimuth (degrees) Set time Set Azimuth (degrees) Duration Max altitude (degrees)

No matching passes for this satellites